• In Russia
  • List of Countries
  • For 7 days
  • Water Temperature
  • Satellite Maps
  • Weather Map
  • Weather Widgets
  • user-avatar
    Login

    Hourly Weather A'ali

    Today, 22 September, Friday

    Time Temperature Precipitation Wind Pressure Humidity
    00:00 +36°C° 0 mm 4 mps 751 mmHg 59%
    01:00 +35°C° 0 mm 3 mps 751 mmHg 58%
    02:00 +35°C° 0 mm 2 mps 751 mmHg 58%
    03:00 +35°C° 0 mm 2 mps 751 mmHg 57%
    04:00 +33°C° 0 mm 1 mps 751 mmHg 57%
    05:00 +33°C° 0 mm 1 mps 751 mmHg 56%
    06:00 +33°C° 0 mm 1 mps 752 mmHg 55%
    07:00 +34°C° 0 mm 1 mps 752 mmHg 51%
    08:00 +35°C° 0 mm 1 mps 752 mmHg 47%
    09:00 +37°C° 0 mm 1 mps 752 mmHg 43%
    10:00 +39°C° 0 mm 1 mps 752 mmHg 40%
    11:00 +40°C° 0 mm 2 mps 752 mmHg 36%
    12:00 +41°C° 0 mm 2 mps 752 mmHg 32%
    13:00 +41°C° 0 mm 2 mps 752 mmHg 30%
    14:00 +42°C° 0 mm 3 mps 752 mmHg 28%
    15:00 +43°C° 0 mm 3 mps 751 mmHg 26%
    16:00 +41°C° 0 mm 4 mps 751 mmHg 30%
    17:00 +40°C° 0 mm 4 mps 752 mmHg 34%
    18:00 +38°C° 0 mm 4 mps 752 mmHg 38%
    19:00 +38°C° 0 mm 4 mps 752 mmHg 41%
    20:00 +37°C° 0 mm 4 mps 752 mmHg 44%
    21:00 +37°C° 0 mm 4 mps 753 mmHg 47%
    22:00 +36°C° 0 mm 4 mps 753 mmHg 46%
    23:00 +36°C° 0 mm 3 mps 753 mmHg 46%

    Tomorrow, 23 September, Saturday

    Time Temperature Precipitation Wind Pressure Humidity
    00:00 +36°C° 0 mm 2 mps 753 mmHg 45%
    01:00 +35°C° 0 mm 2 mps 752 mmHg 45%
    02:00 +34°C° 0 mm 2 mps 752 mmHg 45%
    03:00 +34°C° 0 mm 2 mps 752 mmHg 45%
    04:00 +32°C° 0 mm 1 mps 753 mmHg 45%
    05:00 +32°C° 0 mm 1 mps 753 mmHg 45%
    06:00 +32°C° 0 mm 1 mps 753 mmHg 44%
    07:00 +33°C° 0 mm 1 mps 754 mmHg 41%
    08:00 +35°C° 0 mm 1 mps 754 mmHg 38%
    09:00 +35°C° 0 mm 0 mps 755 mmHg 34%
    10:00 +39°C° 0 mm 1 mps 754 mmHg 31%
    11:00 +40°C° 0 mm 1 mps 754 mmHg 29%
    12:00 +41°C° 0 mm 1 mps 754 mmHg 26%
    13:00 +41°C° 0 mm 2 mps 754 mmHg 25%
    14:00 +41°C° 0 mm 2 mps 753 mmHg 24%
    15:00 +42°C° 0 mm 3 mps 753 mmHg 23%
    16:00 +40°C° 0 mm 3 mps 753 mmHg 27%
    17:00 +39°C° 0 mm 3 mps 753 mmHg 31%
    18:00 +38°C° 0 mm 3 mps 753 mmHg 35%
    19:00 +37°C° 0 mm 3 mps 753 mmHg 38%
    20:00 +36°C° 0 mm 3 mps 754 mmHg 41%
    21:00 +36°C° 0 mm 3 mps 754 mmHg 44%
    22:00 +35°C° 0 mm 2 mps 754 mmHg 46%
    23:00 +35°C° 0 mm 2 mps 754 mmHg 47%

    Day after tomorrow, 24 September, Sunday

    Time Temperature Precipitation Wind Pressure Humidity
    00:00 +35°C° 0 mm 2 mps 754 mmHg 48%
    01:00 +33°C° 0 mm 1 mps 754 mmHg 48%
    02:00 +32°C° 0 mm 1 mps 754 mmHg 49%
    03:00 +32°C° 0 mm 1 mps 753 mmHg 49%
    04:00 +32°C° 0 mm 1 mps 754 mmHg 48%
    05:00 +32°C° 0 mm 1 mps 754 mmHg 47%
    06:00 +32°C° 0 mm 1 mps 755 mmHg 45%
    07:00 +34°C° 0 mm 1 mps 755 mmHg 42%
    08:00 +35°C° 0 mm 1 mps 755 mmHg 38%
    09:00 +37°C° 0 mm 1 mps 756 mmHg 34%
    10:00 +37°C° 0 mm 1 mps 755 mmHg 32%
    11:00 +39°C° 0 mm 1 mps 755 mmHg 29%
    12:00 +40°C° 0 mm 1 mps 755 mmHg 26%
    13:00 +40°C° 0 mm 1 mps 754 mmHg 25%
    14:00 +41°C° 0 mm 2 mps 754 mmHg 25%
    15:00 +41°C° 0 mm 2 mps 753 mmHg 24%
    16:00 +40°C° 0 mm 3 mps 753 mmHg 27%
    17:00 +39°C° 0 mm 3 mps 754 mmHg 30%
    18:00 +38°C° 0 mm 3 mps 754 mmHg 34%
    19:00 +37°C° 0 mm 3 mps 754 mmHg 37%
    20:00 +37°C° 0 mm 3 mps 754 mmHg 40%
    21:00 +36°C° 0 mm 3 mps 755 mmHg 44%
    22:00 +36°C° 0 mm 3 mps 755 mmHg 45%
    23:00 +35°C° 0 mm 2 mps 754 mmHg 47%

    25 September, Monday

    Time Temperature Precipitation Wind Pressure Humidity
    00:00 +35°C° 0 mm 2 mps 754 mmHg 49%
    01:00 +34°C° 0 mm 2 mps 754 mmHg 50%
    02:00 +34°C° 0 mm 2 mps 754 mmHg 50%
    03:00 +32°C° 0 mm 1 mps 753 mmHg 51%
    04:00 +32°C° 0 mm 1 mps 754 mmHg 51%
    05:00 +32°C° 0 mm 1 mps 754 mmHg 51%
    06:00 +32°C° 0 mm 1 mps 754 mmHg 51%
    07:00 +33°C° 0 mm 1 mps 755 mmHg 46%
    08:00 +35°C° 0 mm 1 mps 755 mmHg 42%
    09:00 +36°C° 0 mm 1 mps 755 mmHg 37%
    10:00 +37°C° 0 mm 1 mps 755 mmHg 35%
    11:00 +39°C° 0 mm 1 mps 755 mmHg 32%
    12:00 +40°C° 0 mm 1 mps 754 mmHg 29%
    13:00 +40°C° 0 mm 2 mps 754 mmHg 28%
    14:00 +40°C° 0 mm 3 mps 753 mmHg 28%
    15:00 +40°C° 0 mm 3 mps 753 mmHg 28%
    16:00 +39°C° 0 mm 3 mps 753 mmHg 32%
    17:00 +38°C° 0 mm 3 mps 753 mmHg 37%
    18:00 +37°C° 0 mm 3 mps 754 mmHg 41%
    19:00 +36°C° 0 mm 3 mps 754 mmHg 44%
    20:00 +36°C° 0 mm 2 mps 754 mmHg 46%
    21:00 +35°C° 0 mm 2 mps 754 mmHg 49%
    22:00 +35°C° 0 mm 2 mps 754 mmHg 50%
    23:00 +33°C° 0 mm 1 mps 754 mmHg 52%

    26 September, Tuesday

    Time Temperature Precipitation Wind Pressure Humidity
    00:00 +32°C° 0 mm 1 mps 753 mmHg 53%
    01:00 +32°C° 0 mm 1 mps 753 mmHg 53%
    02:00 +31°C° 0 mm 1 mps 753 mmHg 53%
    03:00 +31°C° 0 mm 1 mps 753 mmHg 53%
    04:00 +31°C° 0 mm 1 mps 753 mmHg 52%
    05:00 +31°C° 0 mm 1 mps 753 mmHg 52%
    06:00 +31°C° 0 mm 1 mps 754 mmHg 51%
    07:00 +34°C° 0 mm 2 mps 754 mmHg 45%
    08:00 +36°C° 0 mm 2 mps 754 mmHg 40%
    09:00 +38°C° 0 mm 3 mps 755 mmHg 34%
    10:00 +39°C° 0 mm 3 mps 754 mmHg 30%
    11:00 +40°C° 0 mm 3 mps 754 mmHg 27%
    12:00 +42°C° 0 mm 3 mps 754 mmHg 23%
    13:00 +42°C° 0 mm 3 mps 754 mmHg 23%
    14:00 +42°C° 0 mm 3 mps 753 mmHg 24%
    15:00 +42°C° 0 mm 3 mps 753 mmHg 25%
    16:00 +39°C° 0 mm 3 mps 753 mmHg 30%
    17:00 +38°C° 0 mm 3 mps 753 mmHg 35%
    18:00 +37°C° 0 mm 3 mps 754 mmHg 41%
    19:00 +36°C° 0 mm 3 mps 754 mmHg 44%
    20:00 +36°C° 0 mm 2 mps 754 mmHg 47%
    21:00 +35°C° 0 mm 2 mps 754 mmHg 50%
    22:00 +35°C° 0 mm 2 mps 754 mmHg 52%
    23:00 +33°C° 0 mm 1 mps 754 mmHg 54%

    27 September, Wednesday

    Time Temperature Precipitation Wind Pressure Humidity
    00:00 +33°C° 0 mm 1 mps 754 mmHg 56%
    01:00 +32°C° 0 mm 1 mps 754 mmHg 56%
    02:00 +32°C° 0 mm 1 mps 753 mmHg 56%
    03:00 +31°C° 0 mm 1 mps 753 mmHg 56%
    04:00 +31°C° 0 mm 1 mps 754 mmHg 56%
    05:00 +31°C° 0 mm 1 mps 754 mmHg 55%
    06:00 +29°C° 0 mm 0 mps 755 mmHg 55%
    07:00 +33°C° 0 mm 1 mps 755 mmHg 50%
    08:00 +34°C° 0 mm 1 mps 755 mmHg 45%
    09:00 +36°C° 0 mm 1 mps 756 mmHg 40%
    10:00 +37°C° 0 mm 1 mps 755 mmHg 36%
    11:00 +39°C° 0 mm 1 mps 755 mmHg 33%
    12:00 +40°C° 0 mm 2 mps 755 mmHg 30%
    13:00 +40°C° 0 mm 2 mps 754 mmHg 30%
    14:00 +40°C° 0 mm 3 mps 754 mmHg 30%
    15:00 +41°C° 0 mm 4 mps 754 mmHg 29%
    16:00 +40°C° 0 mm 4 mps 754 mmHg 35%
    17:00 +38°C° 0 mm 3 mps 754 mmHg 40%
    18:00 +37°C° 0 mm 3 mps 754 mmHg 45%
    19:00 +36°C° 0 mm 3 mps 754 mmHg 47%
    20:00 +36°C° 0 mm 2 mps 755 mmHg 49%
    21:00 +35°C° 0 mm 2 mps 755 mmHg 51%
    22:00 +35°C° 0 mm 2 mps 755 mmHg 53%
    23:00 +33°C° 0 mm 1 mps 754 mmHg 54%
    Show more